EJU98LB EHAM-LMML

Flight info

Callsign EJU98LB
Flight time 3h 7m
Altitude 35000
Route EDUPO Z739 MISGO DCT ASBON DCT TUSUK DCT ULNOK L607 ABUKA DCT TEDGO DCT BATUB DCT TIRUL M738 NATAG DCT LORLO DCT MARON DCT EKOLA L12 GZO
Aircraft A320/M-SDE2E3FGHIJ1RWXYZ/LB1

Departure

Time 2026-05-05 19:07
Airport Amsterdam Airport Schiphol (EHAM)

Arrival

Time 2026-05-05 22:14
Airport Malta International Airport (LMML)
Time Latitude Longitude Altitude Speed Heading
2026-05-05 18:31 52.30967 4.75298 -1 ft 0 kts 148°
2026-05-05 18:55 52.30981 4.75283 -1 ft 4 kts 137°
2026-05-05 18:56 52.30996 4.75250 -1 ft 4 kts 101°
2026-05-05 18:56 52.30994 4.75216 -1 ft 1 kts 56°
2026-05-05 18:56 52.30991 4.75210 -1 ft 0 kts 56°
2026-05-05 18:59 52.30995 4.75217 -1 ft 3 kts 56°
2026-05-05 18:59 52.31013 4.75263 -1 ft 9 kts 56°
2026-05-05 18:59 52.31057 4.75377 -1 ft 14 kts 58°
2026-05-05 19:00 52.31110 4.75488 -1 ft 11 kts 30°
2026-05-05 19:00 52.31188 4.75493 -1 ft 12 kts 356°
2026-05-05 19:00 52.31280 4.75483 -1 ft 16 kts 356°
2026-05-05 19:00 52.31397 4.75473 -1 ft 17 kts 357°
2026-05-05 19:01 52.31499 4.75447 -1 ft 13 kts 317°
2026-05-05 19:01 52.31506 4.75291 -1 ft 17 kts 266°
2026-05-05 19:01 52.31500 4.75086 -1 ft 17 kts 266°
2026-05-05 19:01 52.31492 4.74874 -1 ft 23 kts 267°
2026-05-05 19:02 52.31482 4.74586 -1 ft 26 kts 267°
2026-05-05 19:02 52.31475 4.74360 -1 ft 19 kts 267°
2026-05-05 19:02 52.31451 4.74196 -1 ft 14 kts 234°
2026-05-05 19:02 52.31370 4.74137 -1 ft 15 kts 187°
2026-05-05 19:03 52.31230 4.74123 -1 ft 21 kts 184°
2026-05-05 19:03 52.31090 4.74111 -1 ft 19 kts 183°
2026-05-05 19:03 52.30939 4.74097 -1 ft 25 kts 183°
2026-05-05 19:03 52.30776 4.74083 -1 ft 23 kts 183°
2026-05-05 19:04 52.30625 4.74069 -1 ft 21 kts 183°
2026-05-05 19:04 52.30490 4.74057 -1 ft 18 kts 183°
2026-05-05 19:04 52.30386 4.74045 -1 ft 13 kts 189°
2026-05-05 19:04 52.30307 4.73994 -1 ft 13 kts 205°
2026-05-05 19:05 52.30213 4.73902 -2 ft 14 kts 223°
2026-05-05 19:05 52.30181 4.73767 -2 ft 12 kts 279°
2026-05-05 19:05 52.30236 4.73739 -3 ft 4 kts
2026-05-05 19:05 52.30238 4.73739 -3 ft 0 kts
2026-05-05 19:06 52.30351 4.73751 -4 ft 48 kts
2026-05-05 19:06 52.30905 4.73801 -1 ft 109 kts
2026-05-05 19:07 52.31834 4.73885 10 ft 155 kts
2026-05-05 19:07 52.32900 4.73977 627 ft 152 kts
2026-05-05 19:07 52.33908 4.74443 1284 ft 153 kts 21°
2026-05-05 19:07 52.34961 4.75093 1592 ft 172 kts 22°
2026-05-05 19:08 52.36158 4.75842 1822 ft 197 kts 22°
2026-05-05 19:08 52.37505 4.76733 2135 ft 220 kts 29°
2026-05-05 19:08 52.38715 4.78389 2698 ft 233 kts 45°
2026-05-05 19:08 52.39848 4.80333 3481 ft 238 kts 45°
2026-05-05 19:09 52.41005 4.82314 4280 ft 243 kts 48°
2026-05-05 19:09 52.41921 4.84676 5039 ft 251 kts 65°
2026-05-05 19:09 52.42372 4.87498 5690 ft 264 kts 82°
2026-05-05 19:09 52.42423 4.90527 5876 ft 267 kts 85°
2026-05-05 19:10 52.42429 4.93523 5915 ft 267 kts 86°
2026-05-05 19:10 52.42176 4.96544 5921 ft 272 kts 105°
2026-05-05 19:10 52.41322 4.99365 6430 ft 279 kts 125°
2026-05-05 19:10 52.39982 5.01673 7222 ft 282 kts 142°
2026-05-05 19:11 52.38378 5.03560 7949 ft 286 kts 144°
2026-05-05 19:11 52.36742 5.05449 8712 ft 289 kts 144°
2026-05-05 19:11 52.35087 5.07357 9474 ft 292 kts 144°
2026-05-05 19:11 52.33469 5.09337 10181 ft 295 kts 137°
2026-05-05 19:12 52.32024 5.11831 10647 ft 309 kts 131°
2026-05-05 19:12 52.30556 5.14501 10803 ft 331 kts 131°
2026-05-05 19:12 52.28988 5.17351 11225 ft 342 kts 132°
2026-05-05 19:12 52.27384 5.20260 11865 ft 346 kts 132°
2026-05-05 19:13 52.25718 5.23283 12540 ft 350 kts 132°
2026-05-05 19:13 52.24170 5.26216 13205 ft 353 kts 126°
2026-05-05 19:13 52.22708 5.29593 13857 ft 356 kts 125°
2026-05-05 19:13 52.21300 5.32860 14427 ft 359 kts 125°
2026-05-05 19:14 52.19859 5.36195 15027 ft 361 kts 125°
2026-05-05 19:14 52.18405 5.39548 15603 ft 364 kts 126°
2026-05-05 19:14 52.16938 5.42918 16206 ft 366 kts 125°
2026-05-05 19:14 52.15484 5.46248 16821 ft 367 kts 125°
2026-05-05 19:15 52.14003 5.49634 17456 ft 368 kts 125°
2026-05-05 19:15 52.12517 5.53035 18080 ft 368 kts 125°
2026-05-05 19:15 52.11031 5.56429 18586 ft 371 kts 125°
2026-05-05 19:15 52.09526 5.59858 19110 ft 373 kts 126°
2026-05-05 19:16 52.08017 5.63292 19613 ft 375 kts 126°
2026-05-05 19:16 52.06494 5.66757 20077 ft 378 kts 127°
2026-05-05 19:16 52.04844 5.70025 20519 ft 381 kts 131°
2026-05-05 19:16 52.03072 5.73341 20959 ft 385 kts 132°
2026-05-05 19:17 52.01307 5.76624 21459 ft 387 kts 133°
2026-05-05 19:17 51.99530 5.79916 21930 ft 390 kts 133°
2026-05-05 19:17 51.97739 5.83235 22400 ft 393 kts 133°
2026-05-05 19:17 51.95932 5.86595 22854 ft 396 kts 133°
2026-05-05 19:18 51.94123 5.89975 23334 ft 397 kts 133°
2026-05-05 19:18 51.92340 5.93309 23746 ft 398 kts 133°
2026-05-05 19:18 51.90517 5.96712 24132 ft 400 kts 133°
2026-05-05 19:18 51.88689 6.00112 24512 ft 401 kts 133°
2026-05-05 19:19 51.86852 6.03521 24893 ft 402 kts 133°
2026-05-05 19:19 51.85011 6.06935 25254 ft 404 kts 133°
2026-05-05 19:19 51.83155 6.10356 25604 ft 405 kts 133°
2026-05-05 19:19 51.81289 6.13784 25945 ft 407 kts 133°
2026-05-05 19:20 51.79415 6.17213 26284 ft 408 kts 133°
2026-05-05 19:20 51.77530 6.20658 26622 ft 410 kts 133°
2026-05-05 19:20 51.75639 6.24118 26947 ft 411 kts 133°
2026-05-05 19:20 51.73740 6.27583 27273 ft 413 kts 133°
2026-05-05 19:21 51.71831 6.31060 27575 ft 414 kts 133°
2026-05-05 19:21 51.69941 6.34499 27895 ft 416 kts 133°
2026-05-05 19:21 51.68019 6.37989 28207 ft 417 kts 133°
2026-05-05 19:21 51.66090 6.41491 28508 ft 419 kts 133°
2026-05-05 19:22 51.64157 6.45003 28807 ft 420 kts 133°
2026-05-05 19:22 51.62215 6.48526 29102 ft 421 kts 133°
2026-05-05 19:22 51.60272 6.52044 29415 ft 422 kts 133°
2026-05-05 19:22 51.58319 6.55580 29693 ft 423 kts 133°
2026-05-05 19:23 51.56360 6.59119 29953 ft 424 kts 133°
2026-05-05 19:23 51.54394 6.62658 30180 ft 425 kts 133°
2026-05-05 19:23 51.52424 6.66195 30397 ft 425 kts 133°
2026-05-05 19:23 51.50449 6.69733 30668 ft 425 kts 133°
2026-05-05 19:24 51.48507 6.73211 30983 ft 423 kts 134°
2026-05-05 19:24 51.46554 6.76707 31273 ft 421 kts 134°
2026-05-05 19:24 51.44598 6.80207 31589 ft 420 kts 134°
2026-05-05 19:24 51.42652 6.83682 31885 ft 419 kts 134°
2026-05-05 19:25 51.40626 6.87003 32180 ft 415 kts 141°
2026-05-05 19:25 51.38332 6.89764 32480 ft 412 kts 149°
2026-05-05 19:25 51.35909 6.92205 32762 ft 411 kts 148°
2026-05-05 19:25 51.33496 6.94632 32841 ft 409 kts 148°
2026-05-05 19:26 51.28680 6.99468 32861 ft 409 kts 148°
2026-05-05 19:26 51.23862 7.04296 32858 ft 408 kts 148°
2026-05-05 19:27 51.19085 7.09075 32852 ft 408 kts 148°
2026-05-05 19:27 51.14266 7.13886 32831 ft 408 kts 148°
2026-05-05 19:28 51.09456 7.18676 32835 ft 408 kts 148°
2026-05-05 19:28 51.04635 7.23472 32836 ft 409 kts 148°
2026-05-05 19:29 50.99810 7.28246 32836 ft 409 kts 148°
2026-05-05 19:29 50.94983 7.33011 32836 ft 409 kts 148°
2026-05-05 19:30 50.90153 7.37764 32836 ft 409 kts 148°
2026-05-05 19:30 50.85326 7.42518 32835 ft 409 kts 148°
2026-05-05 19:31 50.80491 7.47269 33099 ft 409 kts 148°
2026-05-05 19:31 50.78076 7.49632 33422 ft 407 kts 148°
2026-05-05 19:31 50.75703 7.51949 33713 ft 406 kts 148°
2026-05-05 19:32 50.73309 7.54288 33982 ft 405 kts 148°
2026-05-05 19:32 50.70918 7.56643 34179 ft 405 kts 148°
2026-05-05 19:32 50.68553 7.59054 34346 ft 406 kts 147°
2026-05-05 19:32 50.66196 7.61512 34515 ft 407 kts 147°
2026-05-05 19:33 50.63837 7.63992 34673 ft 407 kts 147°
2026-05-05 19:33 50.61479 7.66472 34801 ft 408 kts 147°
2026-05-05 19:33 50.56756 7.71391 34817 ft 406 kts 147°
2026-05-05 19:34 50.52038 7.76248 34821 ft 406 kts 147°
2026-05-05 19:35 50.44977 7.83485 34819 ft 406 kts 147°
2026-05-05 19:35 50.40251 7.88313 34805 ft 405 kts 147°
2026-05-05 19:36 50.35531 7.93138 34810 ft 405 kts 147°
2026-05-05 19:36 50.30801 7.97948 34820 ft 406 kts 147°
2026-05-05 19:37 50.26066 8.02755 34811 ft 406 kts 147°
2026-05-05 19:37 50.21329 8.07556 34816 ft 406 kts 147°
2026-05-05 19:38 50.16614 8.12322 34827 ft 406 kts 147°
2026-05-05 19:38 50.11863 8.17083 34836 ft 406 kts 148°
2026-05-05 19:39 50.07005 8.21624 34826 ft 407 kts 150°
2026-05-05 19:39 50.02103 8.26059 34807 ft 408 kts 150°
2026-05-05 19:40 49.97210 8.30530 34822 ft 408 kts 150°
2026-05-05 19:40 49.92321 8.35041 34818 ft 408 kts 149°
2026-05-05 19:41 49.88264 8.38784 34815 ft 408 kts 150°
2026-05-05 19:41 49.82919 8.44760 34811 ft 410 kts 137°
2026-05-05 19:42 49.78766 8.50833 34811 ft 411 kts 138°
2026-05-05 19:42 49.75295 8.55864 34810 ft 411 kts 139°
2026-05-05 19:43 49.70537 8.60646 34809 ft 409 kts 158°
2026-05-05 19:43 49.65034 8.62792 34811 ft 410 kts 169°
2026-05-05 19:44 49.59410 8.64346 34814 ft 411 kts 169°
2026-05-05 19:44 49.53787 8.65911 34822 ft 411 kts 169°
2026-05-05 19:45 49.48483 8.68779 34818 ft 412 kts 148°
2026-05-05 19:45 49.43619 8.73486 34812 ft 414 kts 149°
2026-05-05 19:46 49.38722 8.78191 34804 ft 416 kts 149°
2026-05-05 19:46 49.33798 8.82911 34811 ft 418 kts 149°
2026-05-05 19:47 49.28864 8.87635 34816 ft 419 kts 149°
2026-05-05 19:47 49.23918 8.92365 34796 ft 419 kts 149°
2026-05-05 19:48 49.18971 8.97089 34808 ft 420 kts 149°
2026-05-05 19:48 49.14157 9.02074 34810 ft 422 kts 146°
2026-05-05 19:49 49.09403 9.07330 34812 ft 422 kts 146°
2026-05-05 19:49 49.04639 9.12593 34819 ft 423 kts 146°
2026-05-05 19:50 48.99877 9.17849 34820 ft 423 kts 146°
2026-05-05 19:50 48.95111 9.23101 34827 ft 423 kts 146°
2026-05-05 19:51 48.90335 9.28356 34807 ft 424 kts 147°
2026-05-05 19:51 48.85584 9.33576 34816 ft 425 kts 147°
2026-05-05 19:52 48.80787 9.38839 34826 ft 426 kts 147°
2026-05-05 19:52 48.75983 9.44104 34830 ft 426 kts 147°
2026-05-05 19:53 48.71171 9.49369 34832 ft 427 kts 147°
2026-05-05 19:53 48.66355 9.54632 34830 ft 427 kts 147°
2026-05-05 19:54 48.61512 9.59825 34812 ft 425 kts 154°
2026-05-05 19:54 48.56191 9.63336 34843 ft 419 kts 161°
2026-05-05 19:55 48.50793 9.66639 34853 ft 418 kts 161°
2026-05-05 19:55 48.45406 9.69920 34864 ft 418 kts 161°
2026-05-05 19:56 48.40015 9.73206 34871 ft 417 kts 161°
2026-05-05 19:56 48.34671 9.76468 34870 ft 417 kts 161°
2026-05-05 19:57 48.29291 9.79744 34874 ft 417 kts 161°
2026-05-05 19:57 48.23904 9.83008 34873 ft 417 kts 161°
2026-05-05 19:58 48.18530 9.86257 34884 ft 417 kts 162°
2026-05-05 19:58 48.13188 9.89477 34860 ft 416 kts 162°
2026-05-05 19:59 48.07815 9.92711 34866 ft 416 kts 162°
2026-05-05 19:59 48.02451 9.95943 34890 ft 416 kts 162°
2026-05-05 20:00 47.97084 9.99176 34889 ft 416 kts 162°
2026-05-05 20:00 47.91751 10.02362 34892 ft 416 kts 163°
2026-05-05 20:01 47.86378 10.05552 34899 ft 416 kts 163°
2026-05-05 20:01 47.81002 10.08751 34890 ft 416 kts 162°
2026-05-05 20:02 47.75628 10.11952 34892 ft 416 kts 163°
2026-05-05 20:02 47.70288 10.15127 34875 ft 416 kts 163°
2026-05-05 20:03 47.64911 10.18309 34900 ft 416 kts 164°
2026-05-05 20:03 47.59541 10.21477 34906 ft 415 kts 163°
2026-05-05 20:04 47.54175 10.24633 34896 ft 415 kts 164°
2026-05-05 20:04 47.48856 10.27761 34903 ft 414 kts 164°
2026-05-05 20:05 47.43496 10.30907 34909 ft 414 kts 164°
2026-05-05 20:05 47.38143 10.34050 34903 ft 414 kts 165°
2026-05-05 20:06 47.32791 10.37170 34888 ft 414 kts 165°
2026-05-05 20:06 47.27469 10.40261 34860 ft 414 kts 165°
2026-05-05 20:07 47.22112 10.43373 34881 ft 414 kts 165°
2026-05-05 20:07 47.16758 10.46491 34882 ft 414 kts 165°
2026-05-05 20:08 47.11398 10.49597 34902 ft 414 kts 165°
2026-05-05 20:08 47.06073 10.52668 34904 ft 414 kts 166°
2026-05-05 20:09 47.00658 10.55396 34908 ft 410 kts 169°
2026-05-05 20:09 46.95191 10.57747 34930 ft 410 kts 171°
2026-05-05 20:10 46.89716 10.60098 34928 ft 410 kts 170°
2026-05-05 20:10 46.84286 10.62515 34936 ft 411 kts 170°
2026-05-05 20:11 46.78827 10.64989 34929 ft 411 kts 169°
2026-05-05 20:11 46.73360 10.67462 34932 ft 412 kts 170°
2026-05-05 20:12 46.67852 10.69701 34937 ft 410 kts 173°
2026-05-05 20:12 46.62354 10.71630 34974 ft 409 kts 174°
2026-05-05 20:13 46.56829 10.73539 34976 ft 408 kts 174°
2026-05-05 20:13 46.51300 10.75514 34992 ft 409 kts 173°
2026-05-05 20:14 46.45781 10.77513 34974 ft 409 kts 174°
2026-05-05 20:14 46.40290 10.79497 35004 ft 409 kts 174°
2026-05-05 20:15 46.34770 10.81484 35014 ft 409 kts 174°
2026-05-05 20:15 46.29241 10.83460 35020 ft 409 kts 174°
2026-05-05 20:16 46.23711 10.85438 35007 ft 410 kts 174°
2026-05-05 20:16 46.18167 10.87410 35013 ft 411 kts 174°
2026-05-05 20:17 46.12654 10.89367 35013 ft 411 kts 174°
2026-05-05 20:17 46.07095 10.91335 35011 ft 411 kts 174°
2026-05-05 20:18 46.01547 10.93316 34990 ft 411 kts 174°
2026-05-05 20:18 45.96002 10.95287 34995 ft 411 kts 174°
2026-05-05 20:19 45.90455 10.97242 35006 ft 410 kts 174°
2026-05-05 20:19 45.84946 10.99175 35009 ft 410 kts 174°
2026-05-05 20:20 45.79400 11.01108 35009 ft 410 kts 175°
2026-05-05 20:20 45.73861 11.03047 35007 ft 410 kts 174°
2026-05-05 20:21 45.68325 11.04999 34987 ft 410 kts 174°
2026-05-05 20:21 45.62782 11.06941 34970 ft 411 kts 175°
2026-05-05 20:22 45.57264 11.08855 34976 ft 411 kts 175°
2026-05-05 20:22 45.51706 11.10786 34990 ft 411 kts 175°
2026-05-05 20:23 45.46147 11.12717 34987 ft 411 kts 175°
2026-05-05 20:23 45.40592 11.14649 34988 ft 411 kts 175°
2026-05-05 20:24 45.35070 11.16555 34996 ft 411 kts 175°
2026-05-05 20:24 45.29508 11.18477 34974 ft 411 kts 175°
2026-05-05 20:25 45.23948 11.20398 34979 ft 411 kts 175°
2026-05-05 20:25 45.18388 11.22308 34971 ft 411 kts 175°
2026-05-05 20:26 45.12858 11.24201 34972 ft 411 kts 175°
2026-05-05 20:26 45.07296 11.26105 34995 ft 412 kts 175°
2026-05-05 20:27 45.01725 11.28005 34986 ft 412 kts 175°
2026-05-05 20:27 44.96155 11.29896 34996 ft 412 kts 175°
2026-05-05 20:28 44.90626 11.31780 35001 ft 412 kts 175°
2026-05-05 20:28 44.85057 11.33672 34999 ft 411 kts 175°
2026-05-05 20:29 44.79491 11.35558 34985 ft 411 kts 175°
2026-05-05 20:29 44.73932 11.37447 34984 ft 411 kts 175°
2026-05-05 20:30 44.68358 11.39326 34975 ft 412 kts 175°
2026-05-05 20:30 44.62825 11.41194 34945 ft 412 kts 175°
2026-05-05 20:31 44.57238 11.43075 34950 ft 413 kts 175°
2026-05-05 20:31 44.51641 11.44946 34958 ft 413 kts 175°
2026-05-05 20:32 44.46045 11.46816 34967 ft 414 kts 175°
2026-05-05 20:32 44.40485 11.48670 34957 ft 413 kts 175°
2026-05-05 20:33 44.34891 11.50537 34967 ft 414 kts 175°
2026-05-05 20:33 44.29287 11.52404 34987 ft 414 kts 175°
2026-05-05 20:34 44.23674 11.54270 34996 ft 414 kts 175°
2026-05-05 20:34 44.18108 11.56108 34995 ft 414 kts 175°
2026-05-05 20:35 44.12495 11.57964 34990 ft 414 kts 175°
2026-05-05 20:35 44.06890 11.59821 34995 ft 414 kts 175°
2026-05-05 20:36 44.01282 11.61680 34963 ft 414 kts 175°
2026-05-05 20:36 43.95706 11.63514 34967 ft 415 kts 175°
2026-05-05 20:37 43.90085 11.65355 34974 ft 416 kts 175°
2026-05-05 20:37 43.84442 11.67203 34984 ft 417 kts 175°
2026-05-05 20:38 43.78779 11.69054 34983 ft 420 kts 175°
2026-05-05 20:38 43.73111 11.70904 34994 ft 422 kts 175°
2026-05-05 20:39 43.67405 11.72766 35015 ft 422 kts 175°
2026-05-05 20:39 43.61693 11.74622 34991 ft 422 kts 175°
2026-05-05 20:40 43.55981 11.76479 35004 ft 422 kts 175°
2026-05-05 20:40 43.50268 11.78336 35012 ft 422 kts 175°
2026-05-05 20:41 43.44587 11.80164 35013 ft 422 kts 175°
2026-05-05 20:41 43.38875 11.82014 35005 ft 422 kts 175°
2026-05-05 20:42 43.33166 11.83863 35014 ft 421 kts 175°
2026-05-05 20:42 43.27456 11.85693 35018 ft 421 kts 175°
2026-05-05 20:43 43.21790 11.87503 35021 ft 421 kts 175°
2026-05-05 20:43 43.16095 11.89323 35018 ft 420 kts 175°
2026-05-05 20:44 43.10402 11.91148 35033 ft 420 kts 175°
2026-05-05 20:44 43.04720 11.92969 35034 ft 419 kts 175°
2026-05-05 20:45 42.96238 11.95668 35040 ft 418 kts 175°
2026-05-05 20:45 42.90580 11.97470 35048 ft 417 kts 175°
2026-05-05 20:46 42.84942 11.99249 35049 ft 416 kts 175°
2026-05-05 20:46 42.79303 12.01024 35038 ft 416 kts 175°
2026-05-05 20:47 42.73710 12.02794 35031 ft 415 kts 175°
2026-05-05 20:47 42.68086 12.04565 35021 ft 415 kts 175°
2026-05-05 20:48 42.62451 12.06334 35023 ft 416 kts 175°
2026-05-05 20:48 42.56805 12.08106 35021 ft 418 kts 175°
2026-05-05 20:49 42.51122 12.09887 35030 ft 420 kts 175°
2026-05-05 20:49 42.45465 12.11663 35038 ft 420 kts 175°
2026-05-05 20:50 42.39761 12.13446 35036 ft 421 kts 175°
2026-05-05 20:50 42.34060 12.15221 35020 ft 421 kts 174°
2026-05-05 20:51 42.28373 12.16994 35026 ft 423 kts 174°
2026-05-05 20:51 42.22633 12.18773 35029 ft 424 kts 174°
2026-05-05 20:52 42.16878 12.20545 35034 ft 424 kts 174°
2026-05-05 20:52 42.11118 12.22328 35037 ft 425 kts 174°
2026-05-05 20:53 42.05396 12.24108 35039 ft 425 kts 174°
2026-05-05 20:53 41.99630 12.25897 35040 ft 425 kts 174°
2026-05-05 20:54 41.93869 12.27668 35045 ft 425 kts 174°
2026-05-05 20:54 41.88088 12.29436 35057 ft 426 kts 174°
2026-05-05 20:55 41.82293 12.31203 35058 ft 428 kts 174°
2026-05-05 20:55 41.76527 12.32971 35061 ft 428 kts 174°
2026-05-05 20:56 41.70715 12.34747 35029 ft 428 kts 174°
2026-05-05 20:56 41.64908 12.36520 35037 ft 428 kts 174°
2026-05-05 20:57 41.59105 12.38280 35042 ft 428 kts 174°
2026-05-05 20:57 41.53336 12.40030 35044 ft 428 kts 174°
2026-05-05 20:58 41.47537 12.41784 35022 ft 427 kts 173°
2026-05-05 20:58 41.41737 12.43537 35031 ft 428 kts 173°
2026-05-05 20:59 41.35932 12.45291 35036 ft 428 kts 173°
2026-05-05 20:59 41.30167 12.47032 35024 ft 428 kts 173°
2026-05-05 21:00 41.24364 12.48782 35046 ft 427 kts 173°
2026-05-05 21:00 41.18562 12.50524 35049 ft 427 kts 173°
2026-05-05 21:01 41.12766 12.52262 35052 ft 427 kts 173°
2026-05-05 21:01 41.07009 12.53982 35034 ft 427 kts 173°
2026-05-05 21:02 41.01217 12.55716 35039 ft 427 kts 173°
2026-05-05 21:02 40.95423 12.57444 35045 ft 427 kts 173°
2026-05-05 21:03 40.89627 12.59161 35050 ft 426 kts 173°
2026-05-05 21:03 40.83843 12.60881 35044 ft 426 kts 172°
2026-05-05 21:04 40.78095 12.62597 35050 ft 426 kts 172°
2026-05-05 21:04 40.72311 12.64308 35056 ft 426 kts 173°
2026-05-05 21:05 40.66526 12.66011 35055 ft 426 kts 173°
2026-05-05 21:05 40.60743 12.67713 35041 ft 426 kts 172°
2026-05-05 21:06 40.55003 12.69408 35053 ft 425 kts 172°
2026-05-05 21:06 40.49228 12.71110 35054 ft 425 kts 172°
2026-05-05 21:07 40.43454 12.72801 35055 ft 425 kts 172°
2026-05-05 21:07 40.37678 12.74489 35052 ft 425 kts 172°
2026-05-05 21:08 40.31944 12.76170 35055 ft 425 kts 172°
2026-05-05 21:08 40.26164 12.77855 35037 ft 425 kts 172°
2026-05-05 21:09 40.20381 12.79539 35044 ft 426 kts 172°
2026-05-05 21:09 40.14597 12.81220 35037 ft 426 kts 172°
2026-05-05 21:10 40.08842 12.82891 35045 ft 426 kts 172°
2026-05-05 21:10 40.03055 12.84570 35051 ft 426 kts 172°
2026-05-05 21:11 39.97261 12.86247 35061 ft 426 kts 172°
2026-05-05 21:11 39.91474 12.87919 35061 ft 426 kts 172°
2026-05-05 21:12 39.85687 12.89594 35061 ft 426 kts 172°
2026-05-05 21:12 39.79931 12.91249 35058 ft 426 kts 172°
2026-05-05 21:13 39.74146 12.92905 35048 ft 426 kts 172°
2026-05-05 21:13 39.68362 12.94568 35055 ft 425 kts 172°
2026-05-05 21:14 39.62588 12.96224 35063 ft 425 kts 172°
2026-05-05 21:14 39.56812 12.97871 35060 ft 425 kts 172°
2026-05-05 21:15 39.51079 12.99502 35049 ft 425 kts 172°
2026-05-05 21:15 39.45310 13.01153 35054 ft 425 kts 172°
2026-05-05 21:16 39.39537 13.02789 35056 ft 425 kts 172°
2026-05-05 21:16 39.33801 13.04413 35055 ft 425 kts 172°
2026-05-05 21:17 39.28029 13.06050 35042 ft 425 kts 172°
2026-05-05 21:17 39.22254 13.07689 35045 ft 425 kts 172°
2026-05-05 21:18 39.16482 13.09313 35048 ft 425 kts 172°
2026-05-05 21:18 39.10740 13.10931 35044 ft 425 kts 172°
2026-05-05 21:19 39.04967 13.12564 35037 ft 425 kts 172°
2026-05-05 21:19 38.99182 13.14189 35024 ft 425 kts 172°
2026-05-05 21:20 38.93390 13.15807 35027 ft 426 kts 172°
2026-05-05 21:20 38.87596 13.17436 35041 ft 427 kts 172°
2026-05-05 21:21 38.81831 13.19058 35028 ft 427 kts 171°
2026-05-05 21:21 38.76018 13.20679 35034 ft 427 kts 171°
2026-05-05 21:22 38.70206 13.22303 35037 ft 428 kts 171°
2026-05-05 21:22 38.64390 13.23923 35039 ft 428 kts 171°
2026-05-05 21:23 38.58578 13.25537 35027 ft 428 kts 171°
2026-05-05 21:23 38.52801 13.27138 35032 ft 428 kts 171°
2026-05-05 21:24 38.46987 13.28750 35040 ft 428 kts 171°
2026-05-05 21:24 38.41173 13.30360 35040 ft 428 kts 171°
2026-05-05 21:25 38.35359 13.31966 35024 ft 428 kts 171°
2026-05-05 21:25 38.29582 13.33547 35031 ft 428 kts 171°
2026-05-05 21:26 38.23765 13.35145 35039 ft 428 kts 171°
2026-05-05 21:26 38.17948 13.36750 35040 ft 428 kts 171°
2026-05-05 21:27 38.12130 13.38344 35044 ft 428 kts 171°
2026-05-05 21:27 38.06353 13.39916 35042 ft 427 kts 171°
2026-05-05 21:28 38.00534 13.41514 35052 ft 427 kts 171°
2026-05-05 21:28 37.94718 13.43105 35062 ft 428 kts 171°
2026-05-05 21:29 37.88898 13.44693 35064 ft 428 kts 171°
2026-05-05 21:29 37.83119 13.46261 35060 ft 428 kts 171°
2026-05-05 21:30 37.77293 13.47839 35060 ft 428 kts 171°
2026-05-05 21:30 37.71468 13.49427 35064 ft 429 kts 171°
2026-05-05 21:31 37.65629 13.51011 35077 ft 429 kts 171°
2026-05-05 21:31 37.59790 13.52587 35078 ft 429 kts 171°
2026-05-05 21:32 37.53992 13.54155 35083 ft 429 kts 171°
2026-05-05 21:32 37.48147 13.55732 35087 ft 429 kts 171°
2026-05-05 21:33 37.42311 13.57298 35088 ft 429 kts 171°
2026-05-05 21:33 37.39392 13.58082 34858 ft 427 kts 171°
2026-05-05 21:33 37.36495 13.58860 34615 ft 424 kts 171°
2026-05-05 21:34 37.33654 13.59622 34373 ft 422 kts 171°
2026-05-05 21:34 37.30792 13.60387 34137 ft 420 kts 171°
2026-05-05 21:34 37.27937 13.61150 33877 ft 418 kts 171°
2026-05-05 21:34 37.25104 13.61910 33524 ft 414 kts 171°
2026-05-05 21:35 37.22298 13.62663 33025 ft 411 kts 171°
2026-05-05 21:35 37.19518 13.63407 32528 ft 408 kts 171°
2026-05-05 21:35 37.16750 13.64144 32054 ft 405 kts 171°
2026-05-05 21:35 37.14005 13.64873 31569 ft 402 kts 171°
2026-05-05 21:36 37.11323 13.65842 31099 ft 402 kts 161°
2026-05-05 21:36 37.08770 13.67157 30631 ft 401 kts 160°
2026-05-05 21:36 37.06200 13.68490 30174 ft 399 kts 160°
2026-05-05 21:36 37.03640 13.69811 29669 ft 396 kts 161°
2026-05-05 21:37 37.01099 13.71116 29226 ft 392 kts 161°
2026-05-05 21:37 36.98587 13.72409 28799 ft 389 kts 161°
2026-05-05 21:37 36.96094 13.73691 28365 ft 385 kts 161°
2026-05-05 21:37 36.93626 13.74961 27939 ft 382 kts 161°
2026-05-05 21:38 36.91176 13.76220 27521 ft 379 kts 161°
2026-05-05 21:38 36.88752 13.77464 27085 ft 376 kts 160°
2026-05-05 21:38 36.86373 13.78680 26670 ft 373 kts 160°
2026-05-05 21:38 36.83977 13.79904 26233 ft 371 kts 160°
2026-05-05 21:39 36.81596 13.81119 25801 ft 369 kts 160°
2026-05-05 21:39 36.79231 13.82328 25352 ft 367 kts 160°
2026-05-05 21:39 36.76871 13.83536 24903 ft 366 kts 160°
2026-05-05 21:39 36.74524 13.84741 24452 ft 365 kts 160°
2026-05-05 21:40 36.72177 13.85945 23984 ft 364 kts 160°
2026-05-05 21:40 36.69834 13.87141 23502 ft 363 kts 161°
2026-05-05 21:40 36.67498 13.88329 23009 ft 362 kts 161°
2026-05-05 21:40 36.65209 13.89495 22551 ft 359 kts 160°
2026-05-05 21:41 36.62901 13.90672 22116 ft 357 kts 160°
2026-05-05 21:41 36.60610 13.91840 21670 ft 355 kts 160°
2026-05-05 21:41 36.58330 13.92997 21235 ft 354 kts 160°
2026-05-05 21:41 36.56053 13.94152 20799 ft 352 kts 160°
2026-05-05 21:42 36.53788 13.95299 20366 ft 351 kts 160°
2026-05-05 21:42 36.51532 13.96441 19939 ft 350 kts 160°
2026-05-05 21:42 36.49277 13.97584 19501 ft 349 kts 160°
2026-05-05 21:42 36.47029 13.98725 19082 ft 349 kts 160°
2026-05-05 21:43 36.44783 13.99862 18660 ft 348 kts 160°
2026-05-05 21:43 36.42543 14.00996 18220 ft 348 kts 160°
2026-05-05 21:43 36.40336 14.02112 17777 ft 346 kts 160°
2026-05-05 21:43 36.38111 14.03236 17369 ft 344 kts 161°
2026-05-05 21:44 36.35901 14.04350 16960 ft 342 kts 161°
2026-05-05 21:44 36.33702 14.05459 16553 ft 341 kts 161°
2026-05-05 21:44 36.31513 14.06565 16154 ft 339 kts 160°
2026-05-05 21:44 36.29330 14.07667 15761 ft 338 kts 160°
2026-05-05 21:45 36.27158 14.08764 15359 ft 337 kts 160°
2026-05-05 21:45 36.24995 14.09856 14960 ft 335 kts 160°
2026-05-05 21:45 36.22862 14.10929 14569 ft 335 kts 160°
2026-05-05 21:45 36.20708 14.12013 14171 ft 334 kts 160°
2026-05-05 21:46 36.18560 14.13095 13760 ft 333 kts 160°
2026-05-05 21:46 36.16416 14.14172 13337 ft 331 kts 160°
2026-05-05 21:46 36.14287 14.15239 12934 ft 329 kts 160°
2026-05-05 21:46 36.12176 14.16296 12533 ft 326 kts 160°
2026-05-05 21:47 36.10078 14.17349 12125 ft 324 kts 160°
2026-05-05 21:47 36.07996 14.18394 11734 ft 322 kts 160°
2026-05-05 21:47 36.05921 14.19427 11317 ft 320 kts 162°
2026-05-05 21:47 36.03807 14.20028 10975 ft 313 kts 178°
2026-05-05 21:48 36.01655 14.19894 10514 ft 310 kts 193°
2026-05-05 21:48 35.99596 14.19267 10354 ft 299 kts 195°
2026-05-05 21:48 35.97612 14.18667 10133 ft 289 kts 195°
2026-05-05 21:48 35.95678 14.18093 9589 ft 284 kts 194°
2026-05-05 21:49 35.93782 14.17534 9064 ft 276 kts 194°
2026-05-05 21:49 35.91921 14.16984 8520 ft 274 kts 194°
2026-05-05 21:49 35.90079 14.16440 8079 ft 269 kts 194°
2026-05-05 21:49 35.88321 14.15923 7849 ft 253 kts 194°
2026-05-05 21:50 35.86645 14.15427 7545 ft 247 kts 194°
2026-05-05 21:50 35.84967 14.14929 7442 ft 250 kts 192°
2026-05-05 21:50 35.83234 14.14770 7332 ft 251 kts 174°
2026-05-05 21:50 35.81544 14.15322 7000 ft 256 kts 156°
2026-05-05 21:51 35.80040 14.16517 6390 ft 258 kts 144°
2026-05-05 21:51 35.78598 14.17809 5823 ft 254 kts 145°
2026-05-05 21:51 35.77175 14.19071 5261 ft 249 kts 145°
2026-05-05 21:51 35.75781 14.20299 4812 ft 240 kts 145°
2026-05-05 21:52 35.73332 14.22593 4705 ft 205 kts 128°
2026-05-05 21:52 35.72785 14.24155 4634 ft 201 kts 97°
2026-05-05 21:52 35.73015 14.25852 4229 ft 207 kts 63°
2026-05-05 21:53 35.73837 14.27306 3802 ft 206 kts 56°
2026-05-05 21:53 35.74675 14.28720 3384 ft 203 kts 58°
2026-05-05 21:53 35.75486 14.30098 3147 ft 190 kts 59°
2026-05-05 21:53 35.76222 14.31343 3056 ft 170 kts 59°
2026-05-05 21:54 35.76903 14.32505 2982 ft 168 kts 60°
2026-05-05 21:54 35.77577 14.33664 2746 ft 168 kts 59°
2026-05-05 21:54 35.78257 14.34831 2513 ft 168 kts 60°
2026-05-05 21:54 35.78931 14.35990 2295 ft 166 kts 60°
2026-05-05 21:55 35.79602 14.37144 2064 ft 164 kts 59°
2026-05-05 21:55 35.80260 14.38273 1827 ft 159 kts 59°
2026-05-05 21:55 35.80893 14.39357 1625 ft 154 kts 60°
2026-05-05 21:55 35.81504 14.40414 1425 ft 150 kts 61°
2026-05-05 21:56 35.82103 14.41453 1222 ft 148 kts 62°
2026-05-05 21:56 35.82687 14.42469 1046 ft 147 kts 58°
2026-05-05 21:56 35.83277 14.43483 831 ft 147 kts 59°
2026-05-05 21:56 35.83860 14.44498 638 ft 143 kts 62°
2026-05-05 21:57 35.84434 14.45496 427 ft 142 kts 57°
2026-05-05 21:57 35.85014 14.46482 313 ft 139 kts 54°
2026-05-05 21:57 35.85564 14.47412 565 ft 138 kts 57°
2026-05-05 21:57 35.86121 14.48274 1527 ft 116 kts 56°
2026-05-05 21:58 35.86707 14.48939 1982 ft 128 kts 50°
2026-05-05 21:58 35.87418 14.49767 2354 ft 142 kts 51°
2026-05-05 21:58 35.88060 14.50540 3301 ft 118 kts 43°
2026-05-05 21:58 35.88756 14.51107 3682 ft 132 kts 42°
2026-05-05 21:59 35.89559 14.52077 3508 ft 198 kts 56°
2026-05-05 21:59 35.90468 14.53626 3629 ft 253 kts 58°
2026-05-05 21:59 35.91498 14.55452 3628 ft 259 kts 57°
2026-05-05 21:59 35.92571 14.57402 3626 ft 277 kts 58°
2026-05-05 22:00 35.93527 14.59364 3630 ft 262 kts 65°
2026-05-05 22:00 35.94363 14.61348 3631 ft 260 kts 65°
2026-05-05 22:00 35.95043 14.63395 3608 ft 255 kts 82°
2026-05-05 22:00 35.95058 14.65465 3486 ft 237 kts 104°
2026-05-05 22:01 35.94446 14.67295 3188 ft 230 kts 126°
2026-05-05 22:01 35.93312 14.68653 3026 ft 229 kts 147°
2026-05-05 22:01 35.91838 14.69390 3025 ft 231 kts 168°
2026-05-05 22:01 35.90221 14.69379 3028 ft 236 kts 190°
2026-05-05 22:02 35.88714 14.68571 3026 ft 240 kts 214°
2026-05-05 22:02 35.87498 14.67144 3023 ft 242 kts 223°
2026-05-05 22:02 35.86329 14.65643 3025 ft 243 kts 222°
2026-05-05 22:02 35.85160 14.64145 3010 ft 242 kts 222°
2026-05-05 22:03 35.84007 14.62666 3005 ft 243 kts 223°
2026-05-05 22:03 35.82835 14.61162 3011 ft 244 kts 222°
2026-05-05 22:03 35.81662 14.59655 3009 ft 244 kts 222°
2026-05-05 22:03 35.80485 14.58148 3012 ft 244 kts 222°
2026-05-05 22:04 35.79307 14.56644 3009 ft 244 kts 222°
2026-05-05 22:04 35.78124 14.55136 3011 ft 245 kts 224°
2026-05-05 22:04 35.76922 14.53605 3009 ft 256 kts 221°
2026-05-05 22:04 35.75688 14.52036 3010 ft 260 kts 224°
2026-05-05 22:05 35.74430 14.50433 3010 ft 260 kts 222°
2026-05-05 22:05 35.73173 14.48832 3010 ft 260 kts 222°
2026-05-05 22:05 35.71914 14.47230 3013 ft 260 kts 221°
2026-05-05 22:05 35.70657 14.45632 3016 ft 260 kts 223°
2026-05-05 22:06 35.69415 14.44050 3008 ft 250 kts 224°
2026-05-05 22:06 35.68238 14.42551 3010 ft 241 kts 223°
2026-05-05 22:06 35.67075 14.41073 3012 ft 240 kts 223°
2026-05-05 22:06 35.65915 14.39601 3013 ft 239 kts 221°
2026-05-05 22:07 35.64772 14.38151 3012 ft 240 kts 223°
2026-05-05 22:07 35.63657 14.36624 3013 ft 243 kts 232°
2026-05-05 22:07 35.63045 14.34662 3013 ft 252 kts 260°
2026-05-05 22:07 35.63196 14.32514 3013 ft 255 kts 288°
2026-05-05 22:08 35.64101 14.30657 3010 ft 256 kts 316°
2026-05-05 22:08 35.65476 14.29342 3009 ft 244 kts 326°
2026-05-05 22:08 35.66834 14.28156 3006 ft 234 kts 326°
2026-05-05 22:08 35.68139 14.27013 3011 ft 229 kts 326°
2026-05-05 22:09 35.69437 14.25896 3013 ft 226 kts 332°
2026-05-05 22:09 35.70899 14.25330 3016 ft 216 kts
2026-05-05 22:09 35.72269 14.25602 3036 ft 196 kts 27°
2026-05-05 22:09 35.73370 14.26498 3035 ft 184 kts 51°
2026-05-05 22:10 35.74128 14.27737 3017 ft 181 kts 58°
2026-05-05 22:10 35.74858 14.29002 3011 ft 182 kts 59°
2026-05-05 22:10 35.75595 14.30269 3001 ft 182 kts 58°
2026-05-05 22:10 35.76333 14.31537 3013 ft 182 kts 60°
2026-05-05 22:11 35.77071 14.32803 2923 ft 184 kts 59°
2026-05-05 22:11 35.77808 14.34068 2648 ft 178 kts 59°
2026-05-05 22:11 35.78501 14.35255 2407 ft 168 kts 60°
2026-05-05 22:11 35.79165 14.36387 2182 ft 158 kts 58°
2026-05-05 22:12 35.79791 14.37460 1982 ft 152 kts 60°
2026-05-05 22:12 35.80414 14.38537 1778 ft 155 kts 61°
2026-05-05 22:12 35.81039 14.39619 1576 ft 154 kts 61°
2026-05-05 22:12 35.81653 14.40676 1364 ft 149 kts 60°
2026-05-05 22:13 35.82254 14.41712 1175 ft 147 kts 62°
2026-05-05 22:13 35.82842 14.42722 950 ft 145 kts 60°
2026-05-05 22:13 35.83423 14.43735 811 ft 146 kts 59°
2026-05-05 22:13 35.83997 14.44733 621 ft 142 kts 60°
2026-05-05 22:14 35.84569 14.45730 424 ft 144 kts 56°
2026-05-05 22:14 35.85146 14.46712 315 ft 132 kts 55°
2026-05-05 22:14 35.85600 14.47487 272 ft 62 kts 53°
2026-05-05 22:14 35.85804 14.47837 272 ft 42 kts 53°
2026-05-05 22:15 35.85927 14.48042 272 ft 21 kts 54°
2026-05-05 22:15 35.85953 14.48141 277 ft 9 kts 143°
2026-05-05 22:15 35.85885 14.48158 272 ft 11 kts 171°
2026-05-05 22:15 35.85804 14.48174 272 ft 13 kts 171°
2026-05-05 22:16 35.85708 14.48193 272 ft 15 kts 170°
2026-05-05 22:16 35.85599 14.48215 272 ft 17 kts 171°
2026-05-05 22:16 35.85536 14.48280 272 ft 12 kts 120°
2026-05-05 22:16 35.85476 14.48361 272 ft 14 kts 136°
2026-05-05 22:17 35.85404 14.48451 272 ft 16 kts 134°
2026-05-05 22:17 35.85324 14.48550 272 ft 15 kts 135°
2026-05-05 22:17 35.85286 14.48599 272 ft 11 kts 136°
2026-05-05 22:17 35.85180 14.48662 269 ft 16 kts 155°
2026-05-05 22:18 35.85086 14.48766 264 ft 21 kts 122°
2026-05-05 22:18 35.85013 14.48899 259 ft 18 kts 130°
2026-05-05 22:18 35.84947 14.49038 258 ft 19 kts 119°
2026-05-05 22:18 35.84891 14.49114 259 ft 18 kts 136°
2026-05-05 22:19 35.84929 14.49190 258 ft 11 kts 45°
2026-05-05 22:19 35.84934 14.49246 258 ft 11 kts 99°
2026-05-05 22:19 35.84889 14.49322 259 ft 12 kts 137°
2026-05-05 22:19 35.84851 14.49379 259 ft 6 kts 99°
2026-05-05 22:20 35.84881 14.49395 259 ft 6 kts
2026-05-05 22:20 35.84910 14.49395 259 ft 3 kts 359°
2026-05-05 22:20 35.84912 14.49395 259 ft 0 kts 359°